Year,Month,Day,Hour,Minute,Value (Times are PST for temperature in C)
2016,03,30,00,00,6.20
2016,03,30,00,01,6.20
2016,03,30,00,02,6.20
2016,03,30,00,03,6.20
2016,03,30,00,04,6.20
2016,03,30,00,05,6.20
2016,03,30,00,06,6.20
2016,03,30,00,07,6.20
2016,03,30,00,08,6.20
2016,03,30,00,09,6.20
2016,03,30,00,10,6.20
2016,03,30,00,11,6.20
2016,03,30,00,12,6.10
2016,03,30,00,13,6.10
2016,03,30,00,14,6.10
2016,03,30,00,15,6.10
2016,03,30,00,16,6.10
2016,03,30,00,17,6.10
2016,03,30,00,18,6.10
2016,03,30,00,19,6.10
2016,03,30,00,20,6.10
2016,03,30,00,21,6.10
2016,03,30,00,22,6.10
2016,03,30,00,23,6.10
2016,03,30,00,24,6.10
2016,03,30,00,25,6.10
2016,03,30,00,26,6.10
2016,03,30,00,27,6.10
2016,03,30,00,28,6.10
2016,03,30,00,29,6.10
2016,03,30,00,30,6.00
2016,03,30,00,31,6.00
2016,03,30,00,32,6.00
2016,03,30,00,33,6.00
2016,03,30,00,34,6.00
2016,03,30,00,35,6.00
2016,03,30,00,36,6.00
2016,03,30,00,37,6.00
2016,03,30,00,38,6.00
2016,03,30,00,39,6.00
2016,03,30,00,40,6.00
2016,03,30,00,41,6.10
2016,03,30,00,42,6.10
2016,03,30,00,43,6.10
2016,03,30,00,44,6.10
2016,03,30,00,45,6.10
2016,03,30,00,46,6.10
2016,03,30,00,47,6.00
2016,03,30,00,48,6.00
2016,03,30,00,49,6.00
2016,03,30,00,50,6.00
2016,03,30,00,51,6.00
2016,03,30,00,52,5.90
2016,03,30,00,53,5.90
2016,03,30,00,54,5.90
2016,03,30,00,55,5.90
2016,03,30,00,56,5.80
2016,03,30,00,57,5.80
2016,03,30,00,58,5.80
2016,03,30,00,59,5.80
2016,03,30,01,00,5.70
2016,03,30,01,01,5.70
2016,03,30,01,02,5.70
2016,03,30,01,03,5.70
2016,03,30,01,04,5.70
2016,03,30,01,05,5.70
2016,03,30,01,06,5.70
2016,03,30,01,07,5.70
2016,03,30,01,08,5.70
2016,03,30,01,09,5.70
2016,03,30,01,10,5.70
2016,03,30,01,11,5.70
2016,03,30,01,12,5.70
2016,03,30,01,13,5.70
2016,03,30,01,14,5.70
2016,03,30,01,15,5.70
2016,03,30,01,16,5.70
2016,03,30,01,17,5.70
2016,03,30,01,18,5.70
2016,03,30,01,19,5.70
2016,03,30,01,20,5.70
2016,03,30,01,21,5.70
2016,03,30,01,22,5.70
2016,03,30,01,23,5.60
2016,03,30,01,24,5.60
2016,03,30,01,25,5.60
2016,03,30,01,26,5.60
2016,03,30,01,27,5.60
2016,03,30,01,28,5.60
2016,03,30,01,29,5.60
2016,03,30,01,30,5.60
2016,03,30,01,31,5.50
2016,03,30,01,32,5.50
2016,03,30,01,33,5.50
2016,03,30,01,34,5.50
2016,03,30,01,35,5.50
2016,03,30,01,36,5.50
2016,03,30,01,37,5.50
2016,03,30,01,38,5.50
2016,03,30,01,39,5.40
2016,03,30,01,40,5.40
2016,03,30,01,41,5.40
2016,03,30,01,42,5.40
2016,03,30,01,43,5.40
2016,03,30,01,44,5.40
2016,03,30,01,45,5.40
2016,03,30,01,46,5.40
2016,03,30,01,47,5.40
2016,03,30,01,48,5.40
2016,03,30,01,49,5.40
2016,03,30,01,50,5.40
2016,03,30,01,51,5.40
2016,03,30,01,52,5.40
2016,03,30,01,53,5.40
2016,03,30,01,54,5.40
2016,03,30,01,55,5.30
2016,03,30,01,56,5.30
2016,03,30,01,57,5.30
2016,03,30,01,58,5.30
2016,03,30,01,59,5.30
2016,03,30,02,00,5.30
2016,03,30,02,01,5.30
2016,03,30,02,02,5.30
2016,03,30,02,03,5.30
2016,03,30,02,04,5.30
2016,03,30,02,05,5.30
2016,03,30,02,06,5.30
2016,03,30,02,07,5.30
2016,03,30,02,08,5.30
2016,03,30,02,09,5.30
2016,03,30,02,10,5.30
2016,03,30,02,11,5.30
2016,03,30,02,12,5.30
2016,03,30,02,13,5.30
2016,03,30,02,14,5.30
2016,03,30,02,15,5.30
2016,03,30,02,16,5.30
2016,03,30,02,17,5.30
2016,03,30,02,18,5.30
2016,03,30,02,19,5.30
2016,03,30,02,20,5.30
2016,03,30,02,21,5.30
2016,03,30,02,22,5.30
2016,03,30,02,23,5.30
2016,03,30,02,24,5.30
2016,03,30,02,25,5.30
2016,03,30,02,26,5.30
2016,03,30,02,27,5.30
2016,03,30,02,28,5.30
2016,03,30,02,29,5.30
2016,03,30,02,30,5.30
2016,03,30,02,31,5.30
2016,03,30,02,32,5.20
2016,03,30,02,33,5.20
2016,03,30,02,34,5.20
2016,03,30,02,35,5.20
2016,03,30,02,36,5.20
2016,03,30,02,37,5.20
2016,03,30,02,38,5.20
2016,03,30,02,39,5.10
2016,03,30,02,40,5.10
2016,03,30,02,41,5.10
2016,03,30,02,42,5.10
2016,03,30,02,43,5.10
2016,03,30,02,44,5.10
2016,03,30,02,45,5.10
2016,03,30,02,46,5.10
2016,03,30,02,47,5.10
2016,03,30,02,48,5.10
2016,03,30,02,49,5.10
2016,03,30,02,50,5.10
2016,03,30,02,51,5.10
2016,03,30,02,52,5.10
2016,03,30,02,53,5.10
2016,03,30,02,54,5.10
2016,03,30,02,55,5.10
2016,03,30,02,56,5.10
2016,03,30,02,57,5.10
2016,03,30,02,58,5.10
2016,03,30,02,59,5.00
2016,03,30,03,00,4.90
2016,03,30,03,01,4.90
2016,03,30,03,02,4.90
2016,03,30,03,03,4.90
2016,03,30,03,04,4.90
2016,03,30,03,05,4.90
2016,03,30,03,06,4.90
2016,03,30,03,07,4.90
2016,03,30,03,08,4.90
2016,03,30,03,09,4.90
2016,03,30,03,10,4.90
2016,03,30,03,11,4.90
2016,03,30,03,12,4.90
2016,03,30,03,13,4.90
2016,03,30,03,14,4.90
2016,03,30,03,15,4.80
2016,03,30,03,16,4.80
2016,03,30,03,17,4.80
2016,03,30,03,18,4.80
2016,03,30,03,19,4.80
2016,03,30,03,20,4.80
2016,03,30,03,21,4.80
2016,03,30,03,22,4.80
2016,03,30,03,23,4.80
2016,03,30,03,24,4.80
2016,03,30,03,25,4.80
2016,03,30,03,26,4.80
2016,03,30,03,27,4.80
2016,03,30,03,28,4.80
2016,03,30,03,29,4.70
2016,03,30,03,30,4.70
2016,03,30,03,31,4.70
2016,03,30,03,32,4.70
2016,03,30,03,33,4.70
2016,03,30,03,34,4.70
2016,03,30,03,35,4.70
2016,03,30,03,36,4.60
2016,03,30,03,37,4.60
2016,03,30,03,38,4.60
2016,03,30,03,39,4.60
2016,03,30,03,40,4.60
2016,03,30,03,41,4.60
2016,03,30,03,42,4.60
2016,03,30,03,43,4.60
2016,03,30,03,44,4.60
2016,03,30,03,45,4.60
2016,03,30,03,46,4.60
2016,03,30,03,47,4.60
2016,03,30,03,48,4.50
2016,03,30,03,49,4.50
2016,03,30,03,50,4.50
2016,03,30,03,51,4.50
2016,03,30,03,52,4.60
2016,03,30,03,53,4.60
2016,03,30,03,54,4.60
2016,03,30,03,55,4.60
2016,03,30,03,56,4.60
2016,03,30,03,57,4.60
2016,03,30,03,58,4.60
2016,03,30,03,59,4.60
2016,03,30,04,00,4.60
2016,03,30,04,01,4.60
2016,03,30,04,02,4.50
2016,03,30,04,03,4.50
2016,03,30,04,04,4.50
2016,03,30,04,05,4.50
2016,03,30,04,06,4.50
2016,03,30,04,07,4.50
2016,03,30,04,08,4.50
2016,03,30,04,09,4.50
2016,03,30,04,10,4.50
2016,03,30,04,11,4.40
2016,03,30,04,12,4.40
2016,03,30,04,13,4.40
2016,03,30,04,14,4.40
2016,03,30,04,15,4.40
2016,03,30,04,16,4.40
2016,03,30,04,17,4.40
2016,03,30,04,18,4.30
2016,03,30,04,19,4.30
2016,03,30,04,20,4.30
2016,03,30,04,21,4.30
2016,03,30,04,22,4.30
2016,03,30,04,23,4.30
2016,03,30,04,24,4.30
2016,03,30,04,25,4.30
2016,03,30,04,26,4.30
2016,03,30,04,27,4.20
2016,03,30,04,28,4.20
2016,03,30,04,29,4.20
2016,03,30,04,30,4.20
2016,03,30,04,31,4.20
2016,03,30,04,32,4.20
2016,03,30,04,33,4.20
2016,03,30,04,34,4.20
2016,03,30,04,35,4.20
2016,03,30,04,36,4.20
2016,03,30,04,37,4.20
2016,03,30,04,38,4.20
2016,03,30,04,39,4.20
2016,03,30,04,40,4.20
2016,03,30,04,41,4.20
2016,03,30,04,42,4.20
2016,03,30,04,43,4.20
2016,03,30,04,44,4.20
2016,03,30,04,45,4.20
2016,03,30,04,46,4.20
2016,03,30,04,47,4.20
2016,03,30,04,48,4.20
2016,03,30,04,49,4.20
2016,03,30,04,50,4.20
2016,03,30,04,51,4.20
2016,03,30,04,52,4.20
2016,03,30,04,53,4.20
2016,03,30,04,54,4.20
2016,03,30,04,55,4.20
2016,03,30,04,56,4.20
2016,03,30,04,57,4.20
2016,03,30,04,58,4.20
2016,03,30,04,59,4.20
2016,03,30,05,00,4.20
2016,03,30,05,01,4.20
2016,03,30,05,02,4.20
2016,03,30,05,03,4.20
2016,03,30,05,04,4.20
2016,03,30,05,05,4.20
2016,03,30,05,06,4.20
2016,03,30,05,07,4.20
2016,03,30,05,08,4.20
2016,03,30,05,09,4.20
2016,03,30,05,10,4.20
2016,03,30,05,11,4.20
2016,03,30,05,12,4.20
2016,03,30,05,13,4.20
2016,03,30,05,14,4.20
2016,03,30,05,15,4.20
2016,03,30,05,16,4.20
2016,03,30,05,17,4.20
2016,03,30,05,18,4.20
2016,03,30,05,19,4.20
2016,03,30,05,20,4.20
2016,03,30,05,21,4.20
2016,03,30,05,22,4.20
2016,03,30,05,23,4.20
2016,03,30,05,24,4.20
2016,03,30,05,25,4.20
2016,03,30,05,26,4.20
2016,03,30,05,27,4.20
2016,03,30,05,28,4.20
2016,03,30,05,29,4.20
2016,03,30,05,30,4.20
2016,03,30,05,31,4.20
2016,03,30,05,32,4.20
2016,03,30,05,33,4.20
2016,03,30,05,34,4.20
2016,03,30,05,35,4.20
2016,03,30,05,36,4.20
2016,03,30,05,37,4.20
2016,03,30,05,38,4.20
2016,03,30,05,39,4.20
2016,03,30,05,40,4.20
2016,03,30,05,41,4.20
2016,03,30,05,42,4.20
2016,03,30,05,43,4.20
2016,03,30,05,44,4.20
2016,03,30,05,45,4.20
2016,03,30,05,46,4.20
2016,03,30,05,47,4.20
2016,03,30,05,48,4.20
2016,03,30,05,49,4.20
2016,03,30,05,50,4.20
2016,03,30,05,51,4.20
2016,03,30,05,52,4.20
2016,03,30,05,53,4.20
2016,03,30,05,54,4.20
2016,03,30,05,55,4.20
2016,03,30,05,56,4.20
2016,03,30,05,57,4.20
2016,03,30,05,58,4.20
2016,03,30,05,59,4.20
2016,03,30,06,00,4.20
2016,03,30,06,01,4.20
2016,03,30,06,02,4.20
2016,03,30,06,03,4.20
2016,03,30,06,04,4.20
2016,03,30,06,05,4.10
2016,03,30,06,06,4.10
2016,03,30,06,07,4.10
2016,03,30,06,08,4.10
2016,03,30,06,09,4.20
2016,03,30,06,10,4.20
2016,03,30,06,11,4.20
2016,03,30,06,12,4.20
2016,03,30,06,13,4.20
2016,03,30,06,14,4.20
2016,03,30,06,15,4.20
2016,03,30,06,16,4.20
2016,03,30,06,17,4.20
2016,03,30,06,18,4.20
2016,03,30,06,19,4.20
2016,03,30,06,20,4.20
2016,03,30,06,21,4.20
2016,03,30,06,22,4.20
2016,03,30,06,23,4.20
2016,03,30,06,24,4.20
2016,03,30,06,25,4.20
2016,03,30,06,26,4.20
2016,03,30,06,27,4.20
2016,03,30,06,28,4.20
2016,03,30,06,29,4.20
2016,03,30,06,30,4.20
2016,03,30,06,31,4.20
2016,03,30,06,32,4.20
2016,03,30,06,33,4.20
2016,03,30,06,34,4.20
2016,03,30,06,35,4.20
2016,03,30,06,36,4.20
2016,03,30,06,37,4.20
2016,03,30,06,38,4.20
2016,03,30,06,39,4.20
2016,03,30,06,40,4.20
2016,03,30,06,41,4.20
2016,03,30,06,42,4.20
2016,03,30,06,43,4.20
2016,03,30,06,44,4.20
2016,03,30,06,45,4.20
2016,03,30,06,46,4.20
2016,03,30,06,47,4.20
2016,03,30,06,48,4.20
2016,03,30,06,49,4.20
2016,03,30,06,50,4.20
2016,03,30,06,51,4.20
2016,03,30,06,52,4.10
2016,03,30,06,53,4.10
2016,03,30,06,54,4.10
2016,03,30,06,55,4.10
2016,03,30,06,56,4.10
2016,03,30,06,57,4.10
2016,03,30,06,58,4.10
2016,03,30,06,59,4.10
2016,03,30,07,00,4.10
2016,03,30,07,01,4.10
2016,03,30,07,02,4.10
2016,03,30,07,03,4.10
2016,03,30,07,04,4.10
2016,03,30,07,05,4.10
2016,03,30,07,06,4.10
2016,03,30,07,07,4.10
2016,03,30,07,08,4.00
2016,03,30,07,09,4.00
2016,03,30,07,10,4.00
2016,03,30,07,11,4.00
2016,03,30,07,12,4.00
2016,03,30,07,13,4.00
2016,03,30,07,14,4.00
2016,03,30,07,15,4.00
2016,03,30,07,16,4.00
2016,03,30,07,17,4.00
2016,03,30,07,18,4.00
2016,03,30,07,19,4.00
2016,03,30,07,20,4.00
2016,03,30,07,21,4.00
2016,03,30,07,22,4.00
2016,03,30,07,23,4.00
2016,03,30,07,24,4.00
2016,03,30,07,25,4.00
2016,03,30,07,26,4.00
2016,03,30,07,27,4.00
2016,03,30,07,28,4.00
2016,03,30,07,29,4.00
2016,03,30,07,30,4.00
2016,03,30,07,31,4.00
2016,03,30,07,32,4.00
2016,03,30,07,33,4.00
2016,03,30,07,34,4.00
2016,03,30,07,35,4.00
2016,03,30,07,36,4.00
2016,03,30,07,37,4.00
2016,03,30,07,38,4.00
2016,03,30,07,39,4.00
2016,03,30,07,40,4.00
2016,03,30,07,41,4.00
2016,03,30,07,42,4.00
2016,03,30,07,43,4.00
2016,03,30,07,44,4.00
2016,03,30,07,45,4.00
2016,03,30,07,46,4.10
2016,03,30,07,47,4.10
2016,03,30,07,48,4.10
2016,03,30,07,49,4.10
2016,03,30,07,50,4.10
2016,03,30,07,51,4.10
2016,03,30,07,52,4.10
2016,03,30,07,53,4.10
2016,03,30,07,54,4.10
2016,03,30,07,55,4.10
2016,03,30,07,56,4.10
2016,03,30,07,57,4.20
2016,03,30,07,58,4.20
2016,03,30,07,59,4.20
2016,03,30,08,00,4.20
2016,03,30,08,01,4.20
2016,03,30,08,02,4.20
2016,03,30,08,03,4.20
2016,03,30,08,04,4.20
2016,03,30,08,05,4.20
2016,03,30,08,06,4.20
2016,03,30,08,07,4.20
2016,03,30,08,08,4.20
2016,03,30,08,09,4.30
2016,03,30,08,10,4.30
2016,03,30,08,11,4.30
2016,03,30,08,12,4.30
2016,03,30,08,13,4.30
2016,03,30,08,14,4.40
2016,03,30,08,15,4.40
2016,03,30,08,16,4.40
2016,03,30,08,17,4.40
2016,03,30,08,18,4.50
2016,03,30,08,19,4.50
2016,03,30,08,20,4.50
2016,03,30,08,21,4.50
2016,03,30,08,22,4.50
2016,03,30,08,23,4.60
2016,03,30,08,24,4.60
2016,03,30,08,25,4.60
2016,03,30,08,26,4.60
2016,03,30,08,27,4.60
2016,03,30,08,28,4.60
2016,03,30,08,29,4.60
2016,03,30,08,30,4.60
2016,03,30,08,31,4.70
2016,03,30,08,32,4.70
2016,03,30,08,33,4.70
2016,03,30,08,34,4.80
2016,03,30,08,35,4.80
2016,03,30,08,36,4.80
2016,03,30,08,37,4.90
2016,03,30,08,38,4.90
2016,03,30,08,39,4.90
2016,03,30,08,40,5.00
2016,03,30,08,41,5.10
2016,03,30,08,42,5.10
2016,03,30,08,43,5.10
2016,03,30,08,44,5.10
2016,03,30,08,45,5.20
2016,03,30,08,46,5.20
2016,03,30,08,47,5.30
2016,03,30,08,48,5.30
2016,03,30,08,49,5.30
2016,03,30,08,50,5.40
2016,03,30,08,51,5.40
2016,03,30,08,52,5.50
2016,03,30,08,53,5.50
2016,03,30,08,54,5.60
2016,03,30,08,55,5.60
2016,03,30,08,56,5.70
2016,03,30,08,57,5.70
2016,03,30,08,58,5.80
2016,03,30,08,59,5.90
2016,03,30,09,00,6.00
2016,03,30,09,01,6.10
2016,03,30,09,02,6.20
2016,03,30,09,03,6.20
2016,03,30,09,04,6.30
2016,03,30,09,05,6.30
2016,03,30,09,06,6.40
2016,03,30,09,07,6.40
2016,03,30,09,08,6.50
2016,03,30,09,09,6.60
2016,03,30,09,10,6.70
2016,03,30,09,11,6.70
2016,03,30,09,12,6.80
2016,03,30,09,13,6.80
2016,03,30,09,14,6.90
2016,03,30,09,15,7.00
2016,03,30,09,16,7.10
2016,03,30,09,17,7.20
2016,03,30,09,18,7.20
2016,03,30,09,19,7.30
2016,03,30,09,20,7.40
2016,03,30,09,21,7.50
2016,03,30,09,22,7.60
2016,03,30,09,23,7.70
2016,03,30,09,24,7.80
2016,03,30,09,25,7.90
2016,03,30,09,26,8.00
2016,03,30,09,27,8.10
2016,03,30,09,28,8.20
2016,03,30,09,29,8.30
2016,03,30,09,30,8.40
2016,03,30,09,31,8.50
2016,03,30,09,32,8.60
2016,03,30,09,33,8.70
2016,03,30,09,34,8.70
2016,03,30,09,35,8.80
2016,03,30,09,36,8.90
2016,03,30,09,37,9.00
2016,03,30,09,38,9.10
2016,03,30,09,39,9.30
2016,03,30,09,40,9.40
2016,03,30,09,41,9.50
2016,03,30,09,42,9.70
2016,03,30,09,43,9.80
2016,03,30,09,44,9.90
2016,03,30,09,45,9.90
2016,03,30,09,46,10.10
2016,03,30,09,47,10.20
2016,03,30,09,48,10.40
2016,03,30,09,49,10.50
2016,03,30,09,50,10.70
2016,03,30,09,51,10.90
2016,03,30,09,52,11.10
2016,03,30,09,53,11.20
2016,03,30,09,54,11.40
2016,03,30,09,55,11.50
2016,03,30,09,56,11.60
2016,03,30,09,57,11.80
2016,03,30,09,58,11.90
2016,03,30,09,59,12.00
2016,03,30,10,00,12.10
2016,03,30,10,01,12.30
2016,03,30,10,02,12.40
2016,03,30,10,03,12.50
2016,03,30,10,04,12.70
2016,03,30,10,05,12.80
2016,03,30,10,06,12.80
2016,03,30,10,07,12.90
2016,03,30,10,08,12.90
2016,03,30,10,09,13.00
2016,03,30,10,10,13.10
2016,03,30,10,11,13.10
2016,03,30,10,12,13.20
2016,03,30,10,13,13.20
2016,03,30,10,14,13.30
2016,03,30,10,15,13.30
2016,03,30,10,16,13.30
2016,03,30,10,17,13.40
2016,03,30,10,18,13.50
2016,03,30,10,19,13.50
2016,03,30,10,20,13.50
2016,03,30,10,21,13.60
2016,03,30,10,22,13.60
2016,03,30,10,23,13.70
2016,03,30,10,24,13.70
2016,03,30,10,25,13.70
2016,03,30,10,26,13.70
2016,03,30,10,27,13.80
2016,03,30,10,28,13.80
2016,03,30,10,29,13.90
2016,03,30,10,30,13.90
2016,03,30,10,31,13.90
2016,03,30,10,32,14.00
2016,03,30,10,33,14.00
2016,03,30,10,34,14.00
2016,03,30,10,35,14.10
2016,03,30,10,36,14.10
2016,03,30,10,37,14.20
2016,03,30,10,38,14.20
2016,03,30,10,39,14.20
2016,03,30,10,40,14.30
2016,03,30,10,41,14.30
2016,03,30,10,42,14.30
2016,03,30,10,43,14.30
2016,03,30,10,44,14.40
2016,03,30,10,45,14.40
2016,03,30,10,46,14.40
2016,03,30,10,47,14.40
2016,03,30,10,48,14.50
2016,03,30,10,49,14.50
2016,03,30,10,50,14.50
2016,03,30,10,51,14.50
2016,03,30,10,52,14.50
2016,03,30,10,53,14.50
2016,03,30,10,54,14.50
2016,03,30,10,55,14.50
2016,03,30,10,56,14.50
2016,03,30,10,57,14.50
2016,03,30,10,58,14.50
2016,03,30,10,59,14.50
2016,03,30,11,00,14.50
2016,03,30,11,01,14.50
2016,03,30,11,02,14.60
2016,03,30,11,03,14.60
2016,03,30,11,04,14.60
2016,03,30,11,05,14.60
2016,03,30,11,06,14.70
2016,03,30,11,07,14.70
2016,03,30,11,08,14.70
2016,03,30,11,09,14.70
2016,03,30,11,10,14.70
2016,03,30,11,11,14.80
2016,03,30,11,12,14.80
2016,03,30,11,13,14.80
2016,03,30,11,14,14.80
2016,03,30,11,15,14.80
2016,03,30,11,16,14.80
2016,03,30,11,17,14.80
2016,03,30,11,18,14.80
2016,03,30,11,19,14.90
2016,03,30,11,20,14.90
2016,03,30,11,21,14.90
2016,03,30,11,22,14.90
2016,03,30,11,23,15.00
2016,03,30,11,24,15.00
2016,03,30,11,25,15.00
2016,03,30,11,26,15.10
2016,03,30,11,27,15.10
2016,03,30,11,28,15.10
2016,03,30,11,29,15.10
2016,03,30,11,30,15.20
2016,03,30,11,31,15.20
2016,03,30,11,32,15.30
2016,03,30,11,33,15.30
2016,03,30,11,34,15.30
2016,03,30,11,35,15.30
2016,03,30,11,36,15.40
2016,03,30,11,37,15.40
2016,03,30,11,38,15.50
2016,03,30,11,39,15.50
2016,03,30,11,40,15.60
2016,03,30,11,41,15.60
2016,03,30,11,42,15.70
2016,03,30,11,43,15.70
2016,03,30,11,44,15.80
2016,03,30,11,45,15.80
2016,03,30,11,46,15.80
2016,03,30,11,47,15.80
2016,03,30,11,48,15.90
2016,03,30,11,49,15.90
2016,03,30,11,50,16.00
2016,03,30,11,51,16.10
2016,03,30,11,52,16.10
2016,03,30,11,53,16.10
2016,03,30,11,54,16.10
2016,03,30,11,55,16.10
2016,03,30,11,56,16.20
2016,03,30,11,57,16.20
2016,03,30,11,58,16.20
2016,03,30,11,59,16.20
2016,03,30,12,00,16.20
2016,03,30,12,01,16.20
2016,03,30,12,02,16.30
2016,03,30,12,03,16.30
2016,03,30,12,04,16.30
2016,03,30,12,05,16.30
2016,03,30,12,06,16.30
2016,03,30,12,07,16.30
2016,03,30,12,08,16.30
2016,03,30,12,09,16.30
2016,03,30,12,10,16.30
2016,03,30,12,11,16.20
2016,03,30,12,12,16.20
2016,03,30,12,13,16.20
2016,03,30,12,14,16.20
2016,03,30,12,15,16.20
2016,03,30,12,16,16.20
2016,03,30,12,17,16.20
2016,03,30,12,18,16.30
2016,03,30,12,19,16.30
2016,03,30,12,20,16.30
2016,03,30,12,21,16.30
2016,03,30,12,22,16.40
2016,03,30,12,23,16.40
2016,03,30,12,24,16.40
2016,03,30,12,25,16.40
2016,03,30,12,26,16.40
2016,03,30,12,27,16.40
2016,03,30,12,28,16.50
2016,03,30,12,29,16.60
2016,03,30,12,30,16.60
2016,03,30,12,31,16.60
2016,03,30,12,32,16.60
2016,03,30,12,33,16.60
2016,03,30,12,34,16.70
2016,03,30,12,35,16.70
2016,03,30,12,36,16.70
2016,03,30,12,37,16.70
2016,03,30,12,38,16.70
2016,03,30,12,39,16.70
2016,03,30,12,40,16.70
2016,03,30,12,41,16.70
2016,03,30,12,42,16.70
2016,03,30,12,43,16.70
2016,03,30,12,44,16.70
2016,03,30,12,45,16.70
2016,03,30,12,46,16.70
2016,03,30,12,47,16.70
2016,03,30,12,48,16.70
2016,03,30,12,49,16.70
2016,03,30,12,50,16.70
2016,03,30,12,51,16.80
2016,03,30,12,52,16.80
2016,03,30,12,53,16.90
2016,03,30,12,54,16.90
2016,03,30,12,55,16.90
2016,03,30,12,56,17.00
2016,03,30,12,57,17.00
2016,03,30,12,58,17.00
2016,03,30,12,59,17.00
2016,03,30,13,00,17.00
2016,03,30,13,01,17.10
2016,03,30,13,02,17.10
2016,03,30,13,03,17.10
2016,03,30,13,04,17.10
2016,03,30,13,05,17.10
2016,03,30,13,06,17.10
2016,03,30,13,07,17.10
2016,03,30,13,08,17.10
2016,03,30,13,09,17.10
2016,03,30,13,10,17.10
2016,03,30,13,11,17.10
2016,03,30,13,12,17.10
2016,03,30,13,13,17.10
2016,03,30,13,14,17.20
2016,03,30,13,15,17.20
2016,03,30,13,16,17.20
2016,03,30,13,17,17.20
2016,03,30,13,18,17.20
2016,03,30,13,19,17.20
2016,03,30,13,20,17.20
2016,03,30,13,21,17.20
2016,03,30,13,22,17.20
2016,03,30,13,23,17.20
2016,03,30,13,24,17.20
2016,03,30,13,25,17.20
2016,03,30,13,26,17.20
2016,03,30,13,27,17.20
2016,03,30,13,28,17.30
2016,03,30,13,29,17.30
2016,03,30,13,30,17.30
2016,03,30,13,31,17.30
2016,03,30,13,32,17.30
2016,03,30,13,33,17.30
2016,03,30,13,34,17.30
2016,03,30,13,35,17.30
2016,03,30,13,36,17.40
2016,03,30,13,37,17.40
2016,03,30,13,38,17.40
2016,03,30,13,39,17.50
2016,03,30,13,40,17.50
2016,03,30,13,41,17.50
2016,03,30,13,42,17.50
2016,03,30,13,43,17.60
2016,03,30,13,44,17.60
2016,03,30,13,45,17.60
2016,03,30,13,46,17.70
2016,03,30,13,47,17.70
2016,03,30,13,48,17.70
2016,03,30,13,49,17.70
2016,03,30,13,50,17.80
2016,03,30,13,51,17.80
2016,03,30,13,52,17.80
2016,03,30,13,53,17.90
2016,03,30,13,54,17.90
2016,03,30,13,55,17.90
2016,03,30,13,56,18.00
2016,03,30,13,57,18.10
2016,03,30,13,58,18.20
2016,03,30,13,59,18.20
2016,03,30,14,00,18.30
2016,03,30,14,01,18.40
2016,03,30,14,02,18.40
2016,03,30,14,03,18.50
2016,03,30,14,04,18.60
2016,03,30,14,05,18.60
2016,03,30,14,06,18.60
2016,03,30,14,07,18.70
2016,03,30,14,08,18.70
2016,03,30,14,09,18.80
2016,03,30,14,10,18.80
2016,03,30,14,11,18.90
2016,03,30,14,12,18.90
2016,03,30,14,13,19.00
2016,03,30,14,14,19.10
2016,03,30,14,15,19.10
2016,03,30,14,16,19.10
2016,03,30,14,17,19.10
2016,03,30,14,18,19.20
2016,03,30,14,19,19.20
2016,03,30,14,20,19.20
2016,03,30,14,21,19.10
2016,03,30,14,22,19.10
2016,03,30,14,23,19.20
2016,03,30,14,24,19.20
2016,03,30,14,25,19.20
2016,03,30,14,26,19.30
2016,03,30,14,27,19.30
2016,03,30,14,28,19.40
2016,03,30,14,29,19.50
2016,03,30,14,30,19.60
2016,03,30,14,31,19.80
2016,03,30,14,32,19.90
2016,03,30,14,33,20.00
2016,03,30,14,34,20.10
2016,03,30,14,35,20.20
2016,03,30,14,36,20.20
2016,03,30,14,37,20.20
2016,03,30,14,38,20.20
2016,03,30,14,39,20.20
2016,03,30,14,40,20.20
2016,03,30,14,41,20.20
2016,03,30,14,42,20.20
2016,03,30,14,43,20.20
2016,03,30,14,44,20.30
2016,03,30,14,45,20.30
2016,03,30,14,46,20.30
2016,03,30,14,47,20.30
2016,03,30,14,48,20.40
2016,03,30,14,49,20.40
2016,03,30,14,50,20.30
2016,03,30,14,51,20.30
2016,03,30,14,52,20.30
2016,03,30,14,53,20.30
2016,03,30,14,54,20.20
2016,03,30,14,55,20.20
2016,03,30,14,56,20.20
2016,03,30,14,57,20.10
2016,03,30,14,58,20.00
2016,03,30,14,59,19.90
2016,03,30,15,00,19.90
2016,03,30,15,01,19.80
2016,03,30,15,02,19.70
2016,03,30,15,03,19.70
2016,03,30,15,04,19.60
2016,03,30,15,05,19.50
2016,03,30,15,06,19.40
2016,03,30,15,07,19.40
2016,03,30,15,08,19.30
2016,03,30,15,09,19.20
2016,03,30,15,10,19.20
2016,03,30,15,11,19.10
2016,03,30,15,12,19.10
2016,03,30,15,13,19.10
2016,03,30,15,14,19.10
2016,03,30,15,15,19.10
2016,03,30,15,16,19.00
2016,03,30,15,17,18.90
2016,03,30,15,18,19.00
2016,03,30,15,19,19.10
2016,03,30,15,20,19.10
2016,03,30,15,21,19.30
2016,03,30,15,22,19.40
2016,03,30,15,23,19.50
2016,03,30,15,24,19.70
2016,03,30,15,25,19.80
2016,03,30,15,26,19.90
2016,03,30,15,27,19.90
2016,03,30,15,28,19.90
2016,03,30,15,29,19.90
2016,03,30,15,30,19.90
2016,03,30,15,31,19.90
2016,03,30,15,32,19.90
2016,03,30,15,33,19.90
2016,03,30,15,34,19.90
2016,03,30,15,35,19.90
2016,03,30,15,36,19.90
2016,03,30,15,37,19.90
2016,03,30,15,38,19.90
2016,03,30,15,39,19.90
2016,03,30,15,40,19.90
2016,03,30,15,41,19.90
2016,03,30,15,42,19.90
2016,03,30,15,43,19.90
2016,03,30,15,44,19.90
2016,03,30,15,45,19.90
2016,03,30,15,46,19.80
2016,03,30,15,47,19.80
2016,03,30,15,48,19.80
2016,03,30,15,49,19.70
2016,03,30,15,50,19.70
2016,03,30,15,51,19.70
2016,03,30,15,52,19.60
2016,03,30,15,53,19.60
2016,03,30,15,54,19.60
2016,03,30,15,55,19.50
2016,03,30,15,56,19.40
2016,03,30,15,57,19.40
2016,03,30,15,58,19.30
2016,03,30,15,59,19.30
2016,03,30,16,00,19.20
2016,03,30,16,01,19.20
2016,03,30,16,02,19.20
2016,03,30,16,03,19.20
2016,03,30,16,04,19.10
2016,03,30,16,05,19.10
2016,03,30,16,06,19.10
2016,03,30,16,07,19.10
2016,03,30,16,08,19.10
2016,03,30,16,09,19.10
2016,03,30,16,10,19.10
2016,03,30,16,11,19.10
2016,03,30,16,12,19.10
2016,03,30,16,13,19.10
2016,03,30,16,14,19.10
2016,03,30,16,15,19.10
2016,03,30,16,16,19.10
2016,03,30,16,17,19.10
2016,03,30,16,18,19.10
2016,03,30,16,19,19.10
2016,03,30,16,20,19.10
2016,03,30,16,21,19.10
2016,03,30,16,22,19.10
2016,03,30,16,23,19.10
2016,03,30,16,24,19.10
2016,03,30,16,25,19.10
2016,03,30,16,26,19.10
2016,03,30,16,27,19.10
2016,03,30,16,28,19.10
2016,03,30,16,29,19.10
2016,03,30,16,30,19.10
2016,03,30,16,31,19.10
2016,03,30,16,32,19.10
2016,03,30,16,33,19.10
2016,03,30,16,34,19.10
2016,03,30,16,35,19.10
2016,03,30,16,36,19.10
2016,03,30,16,37,19.10
2016,03,30,16,38,19.10
2016,03,30,16,39,19.10
2016,03,30,16,40,19.10
2016,03,30,16,41,19.10
2016,03,30,16,42,19.10
2016,03,30,16,43,19.00
2016,03,30,16,44,18.90
2016,03,30,16,45,18.90
2016,03,30,16,46,18.90
2016,03,30,16,47,18.90
2016,03,30,16,48,18.90
2016,03,30,16,49,18.90
2016,03,30,16,50,18.90
2016,03,30,16,51,18.90
2016,03,30,16,52,18.90
2016,03,30,16,53,18.90
2016,03,30,16,54,18.90
2016,03,30,16,55,18.90
2016,03,30,16,56,18.90
2016,03,30,16,57,18.90
2016,03,30,16,58,18.90
2016,03,30,16,59,18.90
2016,03,30,17,00,18.90
2016,03,30,17,01,18.90
2016,03,30,17,02,18.90
2016,03,30,17,03,18.90
2016,03,30,17,04,18.90
2016,03,30,17,05,18.90
2016,03,30,17,06,18.90
2016,03,30,17,07,18.90
2016,03,30,17,08,18.90
2016,03,30,17,09,18.90
2016,03,30,17,10,18.90
2016,03,30,17,11,18.90
2016,03,30,17,12,18.90
2016,03,30,17,13,18.90
2016,03,30,17,14,18.90
2016,03,30,17,15,18.90
2016,03,30,17,16,18.90
2016,03,30,17,17,18.90
2016,03,30,17,18,18.90
2016,03,30,17,19,18.90
2016,03,30,17,20,18.90
2016,03,30,17,21,18.90
2016,03,30,17,22,18.80
2016,03,30,17,23,18.80
2016,03,30,17,24,18.80
2016,03,30,17,25,18.80
2016,03,30,17,26,18.80
2016,03,30,17,27,18.80
2016,03,30,17,28,18.80
2016,03,30,17,29,18.80
2016,03,30,17,30,18.80
2016,03,30,17,31,18.70
2016,03,30,17,32,18.70
2016,03,30,17,33,18.70
2016,03,30,17,34,18.70
2016,03,30,17,35,18.60
2016,03,30,17,36,18.60
2016,03,30,17,37,18.60
2016,03,30,17,38,18.60
2016,03,30,17,39,18.60
2016,03,30,17,40,18.50
2016,03,30,17,41,18.50
2016,03,30,17,42,18.50
2016,03,30,17,43,18.50
2016,03,30,17,44,18.50